GW6044 Weather Reports


Display with metric or nautical units.
time (UTC)temp
F
wind
direction
speed
MPH
gust
MPH
rain 1hr
in
rain 24hr
in
rain mn
in
humidity
%
barometer
mb
20260503202510 85 90 1.0 4.0 0.00 0.00 0.00 25 1009.9
20260503202010 84 97 1.0 3.0 0.00 0.00 0.00 28 1009.9
20260503201527 83 80 0.0 2.0 0.00 0.00 0.00 32 1009.9
20260503201007 83 44 0.0 3.0 0.00 0.00 0.00 33 1010.0
20260503200516 84 80 1.0 3.0 0.00 0.00 0.00 30 1010.1
20260503200024 85 103 1.0 2.0 0.00 0.00 0.00 28 1010.1
20260503195511 84 59 1.0 2.0 0.00 0.00 0.00 28 1010.2
20260503195018 84 73 1.0 2.0 0.00 0.00 0.00 27 1010.3
20260503194522 82 62 0.0 2.0 0.00 0.00 0.00 29 1010.4
20260503194009 81 74 0.0 2.0 0.00 0.00 0.00 31 1010.6
20260503193507 80 61 0.0 2.0 0.00 0.00 0.00 36 1010.6
20260503193026 80 63 0.0 2.0 0.00 0.00 0.00 35 1010.6
20260503192506 80 21 1.0 2.0 0.00 0.00 0.00 40 1010.7
20260503192014 80 105 0.0 3.0 0.00 0.00 0.00 41 1010.7
20260503191530 79 107 0.0 3.0 0.00 0.00 0.00 43 1010.8
20260503191010 79 67 0.0 2.0 0.00 0.00 0.00 38 1010.9
20260503190511 77 67 0.0 2.0 0.00 0.00 0.00 38 1010.9
20260503190027 77 67 0.0 2.0 0.00 0.00 0.00 42 1011.0
20260503185510 77 94 1.0 3.0 0.00 0.00 0.00 45 1011.1
20260503185006 77 86 1.0 3.0 0.00 0.00 0.00 41 1011.1
20260503184524 76 81 0.0 2.0 0.00 0.00 0.00 43 1011.1
20260503184006 75 49 0.0 3.0 0.00 0.00 0.00 43 1011.2
20260503183510 75 85 1.0 3.0 0.00 0.00 0.00 44 1011.2
20260503183025 74 75 0.0 3.0 0.00 0.00 0.00 45 1011.3
20260503182507 74 102 1.0 2.0 0.00 0.00 0.00 47 1011.4
20260503182014 74 72 0.0 2.0 0.00 0.00 0.00 45 1011.4
20260503181522 73 58 0.0 3.0 0.00 0.00 0.00 46 1011.5
20260503181007 73 94 1.0 3.0 0.00 0.00 0.00 47 1011.5
20260503180512 73 63 1.0 3.0 0.00 0.00 0.00 48 1011.6
20260503180028 72 49 1.0 3.0 0.00 0.00 0.00 50 1011.6
20260503175511 71 52 1.0 3.0 0.00 0.00 0.00 50 1011.7
20260503175011 70 57 1.0 4.0 0.00 0.00 0.00 51 1011.7
20260503174527 70 99 1.0 4.0 0.00 0.00 0.00 51 1011.7
20260503174006 69 83 1.0 5.0 0.00 0.00 0.00 54 1011.7
20260503173513 68 51 2.0 5.0 0.00 0.00 0.00 55 1011.7
20260503173029 67 60 1.0 6.0 0.00 0.00 0.00 59 1011.8
20260503172509 67 40 3.0 7.0 0.00 0.00 0.00 57 1011.8
20260503172008 67 83 2.0 9.0 0.00 0.00 0.00 57 1011.8
20260503171526 67 70 5.0 9.0 0.00 0.00 0.00 57 1011.8
20260503171008 67 63 5.0 9.0 0.00 0.00 0.00 56 1011.8
20260503170507 67 94 4.0 11.0 0.00 0.00 0.00 56 1011.8
20260503151010 65 56 8.0 16.0 0.00 0.00 0.00 55 1012.7
20260503150510 65 55 11.0 16.0 0.00 0.00 0.00 57 1012.6
20260503131003 59 115 11.0 18.0 0.00 0.00 0.00 70 1012.4
20260503130506 59 80 10.0 18.0 0.00 0.00 0.00 69 1012.4
20260503110506 62 44 4.0 17.0 0.00 0.00 0.00 63 1012.8
20260503090506 63 73 4.0 14.0 0.00 0.00 0.00 70 1012.8
20260503081518 61 61 3.0 11.0 0.00 0.00 0.00 80 1013.0
20260503081010 61 85 4.0 12.0 0.00 0.00 0.00 78 1013.0
20260503080509 62 335 5.0 12.0 0.00 0.00 0.00 79 1013.0
20260503072504 57 219 2.0 4.0 0.00 0.00 0.00 91 1013.1
20260503072007 57 254 2.0 5.0 0.00 0.00 0.00 91 1013.1
20260503071518 58 220 3.0 5.0 0.00 0.00 0.00 91 1013.1
20260503071004 58 209 1.0 3.0 0.00 0.00 0.00 90 1013.0
20260503070504 58 236 2.0 3.0 0.00 0.00 0.00 90 1013.1
20260503055006 59 104 0.0 2.0 0.00 0.00 0.00 87 1013.4
20260503054516 60 96 1.0 2.0 0.00 0.00 0.00 85 1013.4
20260503054003 61 117 0.0 2.0 0.00 0.00 0.00 85 1013.4
20260503053505 61 212 0.0 2.0 0.00 0.00 0.00 84 1013.5
20260503053019 62 240 1.0 2.0 0.00 0.00 0.00 84 1013.5
20260503052503 62 46 0.0 2.0 0.00 0.00 0.00 85 1013.6
20260503052005 61 308 1.0 2.0 0.00 0.00 0.00 85 1013.6
20260503051513 61 157 0.0 2.0 0.00 0.00 0.00 86 1013.6
20260503051003 61 333 0.0 3.0 0.00 0.00 0.00 85 1013.7
20260503050506 61 235 2.0 3.0 0.00 0.00 0.00 86 1013.6
20260503050021 61 229 2.0 3.0 0.00 0.00 0.00 86 1013.5
20260503045507 62 232 2.0 3.0 0.00 0.00 0.00 85 1013.5
20260503045009 62 261 2.0 3.0 0.00 0.00 0.00 85 1013.6
20260503044520 62 271 2.0 3.0 0.00 0.00 0.00 85 1013.6
20260503044008 63 265 2.0 3.0 0.00 0.00 0.00 85 1013.5
20260503043506 63 271 1.0 3.0 0.00 0.00 0.00 85 1013.5
20260503043018 63 265 1.0 3.0 0.00 0.00 0.00 85 1013.4
20260503042506 63 249 1.0 2.0 0.00 0.00 0.00 84 1013.4
20260503042006 63 241 1.0 2.0 0.00 0.00 0.00 84 1013.2
20260503041525 64 279 1.0 2.0 0.00 0.00 0.00 84 1013.1
20260503041002 64 244 1.0 2.0 0.00 0.00 0.00 83 1013.1
20260503040505 64 261 1.0 3.0 0.00 0.00 0.00 83 1012.8
20260503040017 64 262 2.0 3.0 0.00 0.00 0.00 83 1012.7
20260503035502 65 261 2.0 3.0 0.00 0.00 0.00 82 1012.6
20260503035006 65 247 1.0 2.0 0.00 0.00 0.00 81 1012.5
20260503034518 65 221 2.0 3.0 0.00 0.00 0.00 81 1012.4
20260503034010 66 232 2.0 3.0 0.00 0.00 0.00 80 1012.4
20260503033507 66 225 2.0 3.0 0.00 0.00 0.00 80 1012.3
20260503033013 66 210 2.0 3.0 0.00 0.00 0.00 79 1012.0
20260503032506 66 231 2.0 3.0 0.00 0.00 0.00 79 1011.8
20260503032010 67 251 2.0 3.0 0.00 0.00 0.00 79 1011.8
20260503031507 67 230 2.0 3.0 0.00 0.00 0.00 79 1011.6
20260503031006 68 242 2.0 3.0 0.00 0.00 0.00 79 1011.5
20260503030506 68 236 2.0 3.0 0.00 0.00 0.00 78 1011.4
20260503030020 68 229 2.0 3.0 0.00 0.00 0.00 77 1011.3
20260503025503 68 262 2.0 3.0 0.00 0.00 0.00 77 1011.1
20260503025007 69 259 1.0 2.0 0.00 0.00 0.00 76 1011.1
20260503024518 69 257 1.0 2.0 0.00 0.00 0.00 75 1011.0
20260503024010 70 261 1.0 2.0 0.00 0.00 0.00 74 1011.0
20260503023510 70 243 1.0 2.0 0.00 0.00 0.00 72 1010.9
20260503023013 71 242 1.0 2.0 0.00 0.00 0.00 71 1010.9
20260503022507 71 260 1.0 2.0 0.00 0.00 0.00 69 1010.8
20260503022005 71 213 0.0 2.0 0.00 0.00 0.00 67 1010.8
20260503021522 72 169 0.0 2.0 0.00 0.00 0.00 66 1010.8
20260503021010 72 267 1.0 2.0 0.00 0.00 0.00 65 1010.8
20260503020508 72 276 1.0 2.0 0.00 0.00 0.00 65 1010.8
20260503020020 73 257 1.0 2.0 0.00 0.00 0.00 67 1010.8
20260503015508 73 17 0.0 2.0 0.00 0.00 0.00 64 1010.8
20260503015010 73 17 0.0 2.0 0.00 0.00 0.00 60 1010.8
20260503014510 74 138 0.0 2.0 0.00 0.00 0.00 61 1010.8
20260503014009 74 148 0.0 2.0 0.00 0.00 0.00 61 1010.8
20260503013507 74 103 0.0 2.0 0.00 0.00 0.00 60 1010.8
20260503013017 73 86 0.0 2.0 0.00 0.00 0.00 61 1010.8
20260503012508 74 305 0.0 3.0 0.00 0.00 0.00 61 1010.8
20260503012009 74 13 0.0 3.0 0.00 0.00 0.00 60 1010.7
20260503011515 74 254 0.0 3.0 0.00 0.00 0.00 61 1010.7
20260503011003 74 84 0.0 3.0 0.00 0.00 0.00 60 1010.8
20260503010508 73 127 1.0 3.0 0.00 0.00 0.00 59 1010.7
20260503010019 73 62 1.0 2.0 0.00 0.00 0.00 60 1010.7
20260503005511 73 5 0.0 3.0 0.00 0.00 0.00 60 1010.7
20260503005007 73 65 1.0 3.0 0.00 0.00 0.00 60 1010.8
20260503004518 73 64 0.0 3.0 0.00 0.00 0.00 61 1010.8
20260503004013 73 68 1.0 2.0 0.00 0.00 0.00 61 1010.8
20260503003506 73 282 0.0 3.0 0.00 0.00 0.00 61 1010.7
20260503003016 73 76 0.0 3.0 0.00 0.00 0.00 61 1010.8
20260503002507 73 101 1.0 4.0 0.00 0.00 0.00 62 1010.8
20260503002007 72 67 1.0 4.0 0.00 0.00 0.00 61 1010.7
20260503001514 72 127 1.0 4.0 0.00 0.00 0.00 61 1010.7
20260503001007 72 104 1.0 5.0 0.00 0.00 0.00 61 1010.7
20260503000507 72 186 2.0 5.0 0.00 0.00 0.00 62 1010.7
20260503000018 72 10 1.0 4.0 0.00 0.00 0.00 62 1010.8
20260502235507 72 128 2.0 4.0 0.00 0.00 0.00 62 1010.8
20260502235006 72 175 0.0 4.0 0.00 0.00 0.00 63 1010.8
20260502234526 72 137 1.0 5.0 0.00 0.00 0.00 63 1010.9
20260502234011 72 71 1.0 5.0 0.00 0.00 0.00 62 1011.0
20260502233516 72 204 0.0 4.0 0.00 0.00 0.00 62 1011.0
20260502233018 72 93 1.0 4.0 0.00 0.00 0.00 62 1011.1
20260502232510 71 88 2.0 4.0 0.00 0.00 0.00 64 1011.1
20260502232011 71 21 2.0 4.0 0.00 0.00 0.00 62 1011.1
20260502231517 71 99 1.0 3.0 0.00 0.00 0.00 62 1011.3
20260502231008 71 111 1.0 4.0 0.00 0.00 0.00 63 1011.3
20260502230506 71 49 1.0 4.0 0.00 0.00 0.00 63 1011.3
20260502230023 71 105 1.0 4.0 0.00 0.00 0.00 62 1011.4
20260502225507 72 107 2.0 4.0 0.00 0.00 0.00 61 1011.5
20260502225012 72 111 1.0 4.0 0.00 0.00 0.00 62 1011.6
20260502224518 72 212 1.0 5.0 0.00 0.00 0.00 60 1011.6
20260502224007 72 186 1.0 5.0 0.00 0.00 0.00 62 1011.7
20260502223508 71 218 2.0 6.0 0.00 0.00 0.00 62 1011.6
20260502223028 71 115 1.0 6.0 0.00 0.00 0.00 65 1011.7
20260502222509 70 117 2.0 5.0 0.00 0.00 0.00 63 1011.8
20260502222010 70 154 3.0 6.0 0.00 0.00 0.00 65 1011.8
20260502221510 70 82 3.0 6.0 0.00 0.00 0.00 63 1011.9
20260502221005 71 65 2.0 6.0 0.00 0.00 0.00 62 1012.0
20260502220504 71 94 2.0 5.0 0.00 0.00 0.00 62 1012.1
20260502220008 71 115 2.0 7.0 0.00 0.00 0.00 63 1012.2
20260502215505 71 113 3.0 6.0 0.00 0.00 0.00 64 1012.3
20260502215002 70 207 2.0 4.0 0.00 0.00 0.00 64 1012.4
20260502214507 70 61 2.0 5.0 0.00 0.00 0.00 63 1012.5
20260502214007 69 131 1.0 7.0 0.00 0.00 0.00 67 1012.5
20260502213504 69 107 3.0 6.0 0.00 0.00 0.00 65 1012.5
20260502213004 69 141 1.0 6.0 0.00 0.00 0.00 65 1012.6
20260502212506 69 117 2.0 6.0 0.00 0.00 0.00 68 1012.7
20260502212003 68 138 1.0 6.0 0.00 0.00 0.00 70 1012.8
20260502211517 67 87 2.0 6.0 0.00 0.00 0.00 67 1012.8
20260502211002 67 96 2.0 6.0 0.00 0.00 0.00 68 1012.8
20260502210502 68 66 1.0 7.0 0.00 0.00 0.00 66 1012.9
20260502210018 67 77 4.0 7.0 0.00 0.00 0.00 64 1013.0
20260502205506 68 88 3.0 6.0 0.00 0.00 0.00 64 1013.1
20260502205003 67 116 3.0 6.0 0.00 0.00 0.00 66 1013.1
20260502204515 68 116 3.0 6.0 0.00 0.00 0.00 65 1013.2
20260502204007 68 140 2.0 6.0 0.00 0.00 0.00 66 1013.3
20260502203505 67 271 1.0 6.0 0.00 0.00 0.00 71 1013.3
20260502203013 65 190 2.0 6.0 0.00 0.00 0.00 68 1013.4